www.pogodaiklimat.ru

Погода и климат >> Архив погоды >> Россия >> Приморский край >> Свиягино


АРХИВ ПОГОДЫ в Свиягино

Время (UTC), дата Ветер
(напр.,м/с)
 
Видим.   Явления Облачность Т
(С)
Тd
(С)
f
(%)
Тe
(С)
Тes
(С)
Комфортность P
(гПа)
Po
(гПа)
Тmin
(С)
Tmax
(С)
R
(мм)
R24
(мм)
S
(см)
09 10.07 СЗ 1 20 км ясно +24.9 +18.6 68 +30 +32 душно 1012.6 1001.3 +26.1
12 10.07 Ю 1 20 км 1/0
[Ci sp]
+18.5 +16.9 90 +20 +20 1013.0 1001.2
15 10.07 ЮЗ 1 20 км 1 балл +15.2 +13.0 87 +16 +16 1014.4 1002.7
18 10.07 З 1 20 км ясно +12.6 +11.8 95 +13 +13 1014.6 1002.7
21 10.07 З 1 20 км 10/0
[Cs]
+13.9 +12.3 90 +14 +15 1014.0 1002.1 +12.6
00 11.07 З 2 20 км 10/0
[Ac As Ci sp]
+15.9 +13.9 88 +16 +21 1013.5 1001.6
03 11.07 З 1 20 км 10/3 600 м
[Cu med, cong Ac trans Ci sp]
+20.6 +15.6 73 +25 +25 комфорт 1012.8 1001.3
06 11.07 СВ 2 20 км 10 баллов +23.5 +16.8 66 +27 +27 душно 1010.1 998.7
09 11.07 СЗ 2 20 км 6/0
[Ac trans Ci sp]
+22.5 +16.7 70 +27 +28 душно 1008.7 997.3 +24.7
12 11.07 штиль 0 20 км 6/0
[Ac trans Ci sp]
+17.0 +15.6 91 +17 +17 1007.9 996.2
15 11.07 З 1 20 км 6/0
[Ac trans Ci sp]
+16.5 +14.0 85 +17 +17 1007.6 996.0
18 11.07 штиль 0 20 км 6 баллов +16.5 +14.1 86 +16 +16 1006.3 994.7
21 11.07 штиль 0 20 км 8/4 600 м
[Sc Ci sp]
+16.3 +14.7 90 +16 +17 1005.3 993.6 +15.2
00 12.07 СВ 2 20 км 9/3 600 м
[Sc Ac As]
+21.3 +15.8 71 +25 +28 комфорт 1004.5 993.0
03 12.07 СВ 2 20 км 10/4 600 м
[Cu med, cong Ac trans]
+23.6 +16.4 64 +27 +27 жарко 1004.6 993.3
06 12.07 В 2 20 км 10/4 600 м
[Cb cap Ac und]
+22.2 +15.1 64 +26 +26 душно 1002.0 990.7
09 12.07 В 2 20 км 10/3 600 м
[Cb cap Ac und]
+20.8 +15.3 71 +25 +25 комфорт 1002.1 990.7 +24.7
12 12.07 ЮВ 2 20 км 10/3 600 м
[Cb cap Ac und]
+19.4 +14.9 75 +22 +22 комфорт 1002.7 991.2
15 12.07 штиль 0 20 км 10/1 600 м
[Cb cap Ac und]
+18.0 +16.0 88 +18 +18 1003.5 992.0
18 12.07 В 1 20 км 10/6 600 м
[Cb cap Ac und]
+17.5 +16.4 93 +19 +19 1003.5 992.0
21 12.07 штиль 0 20 км 10/9 600 м
[Cb cap Ac und]
+17.6 +16.7 94 +18 +18 1002.9 991.3 +17.0
00 13.07 штиль 0 4000 м дождь 10/0 600 м
[As op]
+17.6 +16.8 95 +18 +21 1004.1 992.4
03 13.07 СВ 1 20 км {дождь} 10/5 600 м
[Sc As op]
+20.2 +17.2 83 +24 +24 комфорт 1004.7 993.3
06 13.07 ЮВ 2 20 км {ливн. осадки, дождь} 10/6 600 м
[Cb cap Ac und]
+20.5 +16.9 80 +24 +24 комфорт 1004.7 993.3
09 13.07 В 1 20 км 10/3 600 м
[Cb cap Ac und]
+20.8 +17.2 80 +26 +26 душно 1002.6 991.1 +21.3 10
12 13.07 штиль 0 20 км 9/0
[Ac As Ci sp]
+18.9 +17.8 93 +20 +20 1003.9 992.3
18 13.07 ЮВ 1 20 км 10/5 600 м
[Cb cap Ac und]
+18.3 +16.3 88 +20 +20 1004.8 993.3
21 13.07 штиль 0 20 км 10/3 600 м
[Cb cap Ac As Ci sp]
+18.0 +16.1 89 +18 +19 1005.0 993.3 +17.5
00 14.07 В 1 20 км 10/1 600 м
[Cb cap Ac trans Ci sp]
+20.8 +16.0 74 +25 +31 комфорт 1005.2 993.7
03 14.07 С 1 20 км 10 баллов +24.0 +16.0 61 +27 +27 жарко 1006.0 994.7
06 14.07 СВ 3 20 км 10/3 600 м
[Cb cap Ac trans Ci sp]
+25.1 +17.0 61 +29 +29 душно 1004.5 993.3
09 14.07 СВ 3 20 км 10/8 600 м
[Cb cap Ci sp]
+24.4 +18.1 68 +29 +29 душно 1004.6 993.3 +26.1
12 14.07 штиль 0 20 км 10/0
[Ac trans Ci sp]
+20.3 +17.4 83 +23 +23 комфорт 1006.2 994.6
15 14.07 ЮВ 3 20 км 7 баллов +18.9 +15.2 79 +20 +20 1007.5 996.0
18 14.07 Ю 1 20 км 4 балла +16.6 +14.1 85 +17 +17 1008.9 997.3
21 14.07 ЮВ 3 20 км 3/0
[Ci sp]
+17.6 +14.2 80 +18 +19 1008.6 996.9 +16.1
00 15.07 ЮВ 3 20 км 8/4 600 м
[Cu med, cong Ac trans Ci sp]
+22.4 +16.0 67 +27 +30 душно 1009.7 998.2
03 15.07 Ю 2 50 км 7 баллов +24.9 +16.1 58 +28 +34 жарко 1011.3 1000.0
06 15.07 ЮВ 4 50 км 9 баллов +25.0 +16.7 60 +29 +29 душно 1010.0 998.7
09 15.07 З 1 20 км 9/8 600 м
[Cb cap Ac cuf]
+21.8 +18.2 80 +27 +27 душно 1011.4 1000.0 +26.1
12 15.07 Ю 1 20 км 8/4 600 м
[Cb cap Ac trans Ci sp]
+20.3 +17.1 82 +25 +25 комфорт 1011.8 1000.2
15 15.07 Ю 2 20 км 7 баллов +19.2 +15.1 77 +21 +21 комфорт 1014.3 1002.7
18 15.07 Ю 1 20 км 7 баллов +17.9 +14.4 80 +19 +19 1014.3 1002.7
21 15.07 ЮВ 1 20 км 10/10 600 м
[Sc]
+18.0 +14.6 81 +19 +19 1013.6 1001.9 +17.6
00 16.07 ЮВ 2 20 км 9/0
[Ac As]
+20.4 +15.5 73 +24 +28 комфорт 1013.9 1002.2
03 16.07 З 2 20 км 10 баллов +23.1 +17.1 69 +28 +28 душно 1014.1 1002.7
06 16.07 ЮЗ 2 20 км 10 баллов +25.1 +17.8 64 +29 +29 душно 1012.6 1001.3
09 16.07 ЮЗ 2 20 км 10/9 600 м
[Cb cap Ac und]
+23.5 +18.2 72 +28 +28 душно 1012.7 1001.3 +25.2
12 16.07 З 1 20 км {ливн. осадки} 10/6 600 м
[Cb cap Ac und]
+19.4 +18.2 93 +23 +23 комфорт 1012.2 1000.5
15 16.07 Ю 1 20 км 7 баллов +17.3 +15.6 90 +18 +18 1012.9 1001.3
18 16.07 Ю 2 20 км 6 баллов +16.4 +14.9 91 +16 +16 1013.0 1001.3
21 16.07 Ю 1 20 км 4/0
[Ac trans Ci sp]
+16.1 +15.1 94 +17 +18 1011.1 999.3 +15.4 0.3
00 17.07 ЮЗ 3 20 км 9/3 600 м
[Cb cap Ac trans Ci sp]
+21.3 +16.3 73 +25 +28 комфорт 1010.5 998.9
03 17.07 ЮЗ 2 20 км 10 баллов +23.2 +17.4 70 +29 +29 душно 1010.1 998.7

 

Местоположение метеостанции Свиягино (Приморский край, Россия): широта 44.80 долгота 133.00 высота над уровнем моря 99 м.

В архиве по умолчанию представлена погода в Свиягино за последнюю неделю. Архивные данные за месяц целиком и за предыдущие месяцы, начиная с января 2011 года, Вы можете получить, выбрав интересующий диапазон дат из раскрывающегося списка и нажав кнопку "Ввод!".


*Определитесь, кто Вы:
робот инопланетянин человек

Внимание! Время в таблицах - всемирное. Для получения местного времени необходимо прибавить поправку, которая равна 10 ч.

Смотрите также архив погоды в соседних городах и на ближайших метеорологических станциях:

Погода в Спасск-Дальнем (Приморский край, Россия) (25 км)
Погода в Кировском (Приморский край, Россия) (52 км)
Погода в Лесозаводске (Приморский край, Россия) (78 км)
Погода в Астраханке (Приморский край, Россия) (79 км)
Погода в Хороле (Приморский край, Россия) (89 км)
Погода в Турьем Роге (Приморский край, Россия) (92 км)
Погода в Анучино (Приморский край, Россия) (92 км)
Погода в Чугуевке (Приморский край, Россия) (96 км)
Погода в Хулине (Хэйлунцзян, Китай) (108 км)
Погода в Малиново (Приморский край, Россия) (117 км)

Пояснения к столбцам:

Ветер - указаны скорость ветра в м/с - средняя за 10 мин, порывы в срок и между сроками (в фигурных скобках) и направление, откуда дует ветер: С - северный, СВ - северо-восточный, В - восточный, ЮВ - юго-восточный, Ю - южный, ЮЗ - юго-западный, З - западный, СЗ - северо-западный.
Видимость - горизонтальная дальность видимости в метрах или километрах. При видимости от 1 до 10 км при отсутствии осадков обычно наблюдается дымка, при ухудшении видимости до 1 км и менее - туман. В сухую погоду видимость может ухудшаться дымом, пылью или мглою.
Явления - указаны атмосферные явления, наблюдавшиеся в срок или в последний час перед сроком; фигурными скобками обозначены явления, наблюдавшиеся между сроками (за 1-3 часа до срока); квадратными скобками обозначены град или гололедные отложения с указанием их диаметра в мм.
Облачность - указаны через наклонную черту общая и нижняя облачность в баллах и высота нижней границы облаков в метрах; квадратными скобками обозначены формы облаков: Ci - перистые, Cs - перисто-слоистые, Cc - перисто-кучевые, Ac - высококучевые, As - высокослоистые, Sc - слоисто-кучевые, Ns - слоисто-дождевые, Cu - кучевые, Cb - кучево-дождевые. Подробнее классификацию облаков см. в Атласе облаков (PDF).
T - Температура воздуха - температура, измеренная на высоте 2 м над землей.
Td - Температура точки росы - температура, при понижении до которой содержащийся в воздухе водяной пар достигнет насыщения.
f - Относительная влажность воздуха - влажноcть воздуха, измеренная на высоте 2 м над землей.
Te - Эффективная температура - температура, которую ощущает одетый по сезону человек в тени. Характеристика душности погоды. При расчете учитывается влияние влажности воздуха и скорости ветра на теплоощущения человека.
Tes - Эффективная температура на солнце - температура, которую ощущает человек, с поправкой на солнечный нагрев. Характеристика знойности погоды. Зависит от высоты солнца над горизонтом, облачности и скорости ветра. Ночью, в пасмурную погоду, а также при ветре 12 м/с и более поправка равна нулю.
P - Атмосферное давление - приведенное к уровню моря атмосферное давление.
Po - Атмосферное давление - измеренное на уровне метеостанции атмосферное давление.
Tmin - Минимальная температура - минимум температуры воздуха на высоте 2 м над землей.
Tmax - Максимальная температура - максимум температуры воздуха на высоте 2 м над землей.
R - Количество осадков - Количество выпавших осадков за период времени, мм. При наведении курсора мыши на число - период времени, за который выпало указанное количество осадков.
R24 - Количество осадков - Количество выпавших осадков за 24 часа, мм.
S - Снежный покров - Высота снежного покрова, см. При наведении курсора мыши на число - состояние снежного покрова и степень покрытия местности в баллах.